owner,sensor,date,latitude,longitude,vertical_datum,wind_speed,wind_to_direction,wind_speed_of_gust,qcFlag 
TCOON,ioos:station:TCOON:006:1,2014-05-01T00:00:00Z,27.8217,-97.2040,0.0,2.8,72.0,4.6,'1111122,1111122,1111122' 
TCOON,ioos:station:TCOON:006:1,2014-05-01T00:06:00Z,27.8217,-97.2040,0.0,2.7,85.0,5.3,'11111222,11111222,11111222' 
TCOON,ioos:station:TCOON:006:1,2014-05-01T00:12:00Z,27.8217,-97.2040,0.0,3.6,92.0,5.5,'11111222,11111222,11111222' 
TCOON,ioos:station:TCOON:006:1,2014-05-01T00:18:00Z,27.8217,-97.2040,0.0,3.3,84.0,5.2,'11111222,11111222,11111222' 
TCOON,ioos:station:TCOON:006:1,2014-05-01T00:24:00Z,27.8217,-97.2040,0.0,3.2,85.0,4.9,'11111222,11111222,11111222' 
TCOON,ioos:station:TCOON:006:1,2014-05-01T00:30:00Z,27.8217,-97.2040,0.0,3.4,77.0,4.8,'11111222,11111222,11111222' 
TCOON,ioos:station:TCOON:006:1,2014-05-01T00:36:00Z,27.8217,-97.2040,0.0,3.4,82.0,4.8,'11111222,11111222,11111222' 
TCOON,ioos:station:TCOON:006:1,2014-05-01T00:42:00Z,27.8217,-97.2040,0.0,3.0,94.0,4.7,'11111222,11111222,11111222' 
TCOON,ioos:station:TCOON:006:1,2014-05-01T00:48:00Z,27.8217,-97.2040,0.0,2.5,87.0,4.5,'11111222,11111222,11111222' 
TCOON,ioos:station:TCOON:006:1,2014-05-01T00:54:00Z,27.8217,-97.2040,0.0,2.6,71.0,4.2,'11111222,11111222,11111222' 
TCOON,ioos:station:TCOON:006:1,2014-05-01T01:00:00Z,27.8217,-97.2040,0.0,2.6,71.0,4.2,'1111122,1111122,1111122' 
TCOON,ioos:station:TCOON:006:1,2014-05-01T01:06:00Z,27.8217,-97.2040,0.0,2.4,65.0,4.2,'11111222,11111222,11111222' 
TCOON,ioos:station:TCOON:006:1,2014-05-01T01:12:00Z,27.8217,-97.2040,0.0,2.4,61.0,3.5,'11111222,11111222,11111222' 
TCOON,ioos:station:TCOON:006:1,2014-05-01T01:18:00Z,27.8217,-97.2040,0.0,3.0,63.0,4.1,'11111222,11111222,11111222' 
TCOON,ioos:station:TCOON:006:1,2014-05-01T01:24:00Z,27.8217,-97.2040,0.0,2.7,62.0,4.1,'11111222,11111222,11111222' 
TCOON,ioos:station:TCOON:006:1,2014-05-01T01:30:00Z,27.8217,-97.2040,0.0,2.8,65.0,4.2,'11111222,11111222,11111222' 
TCOON,ioos:station:TCOON:006:1,2014-05-01T01:36:00Z,27.8217,-97.2040,0.0,2.0,62.0,3.6,'11111222,11111222,11111222' 
TCOON,ioos:station:TCOON:006:1,2014-05-01T01:42:00Z,27.8217,-97.2040,0.0,2.4,62.0,3.9,'11111222,11111222,11111222' 
TCOON,ioos:station:TCOON:006:1,2014-05-01T01:48:00Z,27.8217,-97.2040,0.0,2.2,51.0,3.8,'11111222,11111222,11111222' 
TCOON,ioos:station:TCOON:006:1,2014-05-01T01:54:00Z,27.8217,-97.2040,0.0,3.0,57.0,5.5,'11111222,11111222,11111222' 
TCOON,ioos:station:TCOON:006:1,2014-05-01T02:00:00Z,27.8217,-97.2040,0.0,3.0,57.0,5.5,'1111122,1111122,1111122' 
TCOON,ioos:station:TCOON:006:1,2014-05-01T02:06:00Z,27.8217,-97.2040,0.0,3.5,45.0,5.1,'11111222,11111222,11111222' 
TCOON,ioos:station:TCOON:006:1,2014-05-01T02:12:00Z,27.8217,-97.2040,0.0,3.6,50.0,5.1,'11111222,11111222,11111222' 
TCOON,ioos:station:TCOON:006:1,2014-05-01T02:18:00Z,27.8217,-97.2040,0.0,3.3,43.0,5.1,'11111222,11111222,11111222' 
TCOON,ioos:station:TCOON:006:1,2014-05-01T02:24:00Z,27.8217,-97.2040,0.0,3.7,48.0,5.5,'11111222,11111222,11111222' 
TCOON,ioos:station:TCOON:006:1,2014-05-01T02:30:00Z,27.8217,-97.2040,0.0,4.1,50.0,6.3,'11111222,11111222,11111222' 
TCOON,ioos:station:TCOON:006:1,2014-05-01T02:36:00Z,27.8217,-97.2040,0.0,3.7,45.0,5.3,'11111222,11111222,11111222' 
TCOON,ioos:station:TCOON:006:1,2014-05-01T02:42:00Z,27.8217,-97.2040,0.0,3.7,43.0,5.7,'11111222,11111222,11111222' 
TCOON,ioos:station:TCOON:006:1,2014-05-01T02:48:00Z,27.8217,-97.2040,0.0,3.9,43.0,5.1,'11111222,11111222,11111222' 
TCOON,ioos:station:TCOON:006:1,2014-05-01T02:54:00Z,27.8217,-97.2040,0.0,4.6,45.0,6.3,'11111222,11111222,11111222' 
TCOON,ioos:station:TCOON:006:1,2014-05-01T03:00:00Z,27.8217,-97.2040,0.0,4.6,45.0,6.3,'1111122,1111122,1111122' 
TCOON,ioos:station:TCOON:006:1,2014-05-01T03:06:00Z,27.8217,-97.2040,0.0,4.9,45.0,6.0,'11111222,11111222,11111222' 
TCOON,ioos:station:TCOON:006:1,2014-05-01T03:12:00Z,27.8217,-97.2040,0.0,4.4,44.0,6.5,'11111222,11111222,11111222' 
TCOON,ioos:station:TCOON:006:1,2014-05-01T03:18:00Z,27.8217,-97.2040,0.0,4.6,46.0,6.6,'11111222,11111222,11111222' 
TCOON,ioos:station:TCOON:006:1,2014-05-01T03:24:00Z,27.8217,-97.2040,0.0,3.6,44.0,5.5,'11111222,11111222,11111222' 
TCOON,ioos:station:TCOON:006:1,2014-05-01T03:30:00Z,27.8217,-97.2040,0.0,4.2,45.0,5.9,'11111222,11111222,11111222' 
TCOON,ioos:station:TCOON:006:1,2014-05-01T03:36:00Z,27.8217,-97.2040,0.0,4.5,44.0,6.6,'11111222,11111222,11111222' 
TCOON,ioos:station:TCOON:006:1,2014-05-01T03:42:00Z,27.8217,-97.2040,0.0,4.4,42.0,6.4,'11111222,11111222,11111222' 
TCOON,ioos:station:TCOON:006:1,2014-05-01T03:48:00Z,27.8217,-97.2040,0.0,3.6,44.0,5.9,'11111222,11111222,11111222' 
TCOON,ioos:station:TCOON:006:1,2014-05-01T03:54:00Z,27.8217,-97.2040,0.0,4.3,44.0,7.0,'11111222,11111222,11111222' 
TCOON,ioos:station:TCOON:006:1,2014-05-01T04:00:00Z,27.8217,-97.2040,0.0,4.3,44.0,7.0,'1111122,1111122,1111122' 
TCOON,ioos:station:TCOON:006:1,2014-05-01T04:06:00Z,27.8217,-97.2040,0.0,5.4,49.0,7.2,'11111222,11111222,11111222' 
TCOON,ioos:station:TCOON:006:1,2014-05-01T04:12:00Z,27.8217,-97.2040,0.0,4.9,43.0,7.0,'11111222,11111222,11111222' 
TCOON,ioos:station:TCOON:006:1,2014-05-01T04:18:00Z,27.8217,-97.2040,0.0,4.6,42.0,6.7,'11111222,11111222,11111222' 
TCOON,ioos:station:TCOON:006:1,2014-05-01T04:24:00Z,27.8217,-97.2040,0.0,5.2,42.0,7.9,'11111222,11111222,11111222' 
TCOON,ioos:station:TCOON:006:1,2014-05-01T04:30:00Z,27.8217,-97.2040,0.0,4.1,47.0,5.9,'11111222,11111222,11111222' 
TCOON,ioos:station:TCOON:006:1,2014-05-01T04:36:00Z,27.8217,-97.2040,0.0,4.3,46.0,7.0,'11111222,11111222,11111222' 
TCOON,ioos:station:TCOON:006:1,2014-05-01T04:42:00Z,27.8217,-97.2040,0.0,4.7,45.0,7.7,'11111222,11111222,11111222' 
TCOON,ioos:station:TCOON:006:1,2014-05-01T04:48:00Z,27.8217,-97.2040,0.0,4.5,42.0,7.0,'11111222,11111222,11111222' 
TCOON,ioos:station:TCOON:006:1,2014-05-01T04:54:00Z,27.8217,-97.2040,0.0,5.1,47.0,7.3,'11111222,11111222,11111222' 
TCOON,ioos:station:TCOON:006:1,2014-05-01T05:00:00Z,27.8217,-97.2040,0.0,5.1,47.0,7.3,'1111122,1111122,1111122' 
TCOON,ioos:station:TCOON:006:1,2014-05-01T05:06:00Z,27.8217,-97.2040,0.0,5.9,45.0,8.8,'11111222,11111222,11111222' 
TCOON,ioos:station:TCOON:006:1,2014-05-01T05:12:00Z,27.8217,-97.2040,0.0,4.9,44.0,7.5,'11111222,11111222,11111222' 
TCOON,ioos:station:TCOON:006:1,2014-05-01T05:18:00Z,27.8217,-97.2040,0.0,5.3,46.0,7.6,'11111222,11111222,11111222' 
TCOON,ioos:station:TCOON:006:1,2014-05-01T05:24:00Z,27.8217,-97.2040,0.0,4.9,46.0,7.7,'11111222,11111222,11111222' 
TCOON,ioos:station:TCOON:006:1,2014-05-01T05:30:00Z,27.8217,-97.2040,0.0,4.7,46.0,6.4,'11111222,11111222,11111222' 
TCOON,ioos:station:TCOON:006:1,2014-05-01T05:36:00Z,27.8217,-97.2040,0.0,4.7,44.0,6.4,'11111222,11111222,11111222' 
TCOON,ioos:station:TCOON:006:1,2014-05-01T05:42:00Z,27.8217,-97.2040,0.0,5.8,44.0,8.0,'11111222,11111222,11111222' 
TCOON,ioos:station:TCOON:006:1,2014-05-01T05:48:00Z,27.8217,-97.2040,0.0,5.4,45.0,7.6,'11111222,11111222,11111222' 
TCOON,ioos:station:TCOON:006:1,2014-05-01T05:54:00Z,27.8217,-97.2040,0.0,4.9,40.0,7.1,'11111222,11111222,11111222' 
TCOON,ioos:station:TCOON:006:1,2014-05-01T06:00:00Z,27.8217,-97.2040,0.0,5.5,45.0,7.2,'11111222,11111222,11111222' 
TCOON,ioos:station:TCOON:006:1,2014-05-01T06:06:00Z,27.8217,-97.2040,0.0,6.0,40.0,7.8,'11111222,11111222,11111222' 
TCOON,ioos:station:TCOON:006:1,2014-05-01T06:12:00Z,27.8217,-97.2040,0.0,5.4,42.0,7.9,'11111222,11111222,11111222' 
TCOON,ioos:station:TCOON:006:1,2014-05-01T06:18:00Z,27.8217,-97.2040,0.0,5.6,44.0,7.5,'11111222,11111222,11111222' 
TCOON,ioos:station:TCOON:006:1,2014-05-01T06:24:00Z,27.8217,-97.2040,0.0,5.6,44.0,7.5,'1111122,1111122,1111122' 
TCOON,ioos:station:TCOON:006:1,2014-05-01T06:30:00Z,27.8217,-97.2040,0.0,5.0,44.0,7.8,'11111222,11111222,11111222' 
TCOON,ioos:station:TCOON:006:1,2014-05-01T06:36:00Z,27.8217,-97.2040,0.0,6.2,39.0,7.6,'11111222,11111222,11111222' 
TCOON,ioos:station:TCOON:006:1,2014-05-01T06:42:00Z,27.8217,-97.2040,0.0,5.0,41.0,7.5,'11111222,11111222,11111222' 
TCOON,ioos:station:TCOON:006:1,2014-05-01T06:48:00Z,27.8217,-97.2040,0.0,5.5,38.0,8.0,'11111222,11111222,11111222' 
TCOON,ioos:station:TCOON:006:1,2014-05-01T06:54:00Z,27.8217,-97.2040,0.0,6.4,38.0,8.1,'11111222,11111222,11111222' 
TCOON,ioos:station:TCOON:006:1,2014-05-01T07:00:00Z,27.8217,-97.2040,0.0,6.4,38.0,8.1,'1111122,1111122,1111122' 
TCOON,ioos:station:TCOON:006:1,2014-05-01T07:06:00Z,27.8217,-97.2040,0.0,6.1,36.0,9.0,'11111222,11111222,11111222' 
TCOON,ioos:station:TCOON:006:1,2014-05-01T07:12:00Z,27.8217,-97.2040,0.0,6.3,36.0,9.1,'11111222,11111222,11111222' 
TCOON,ioos:station:TCOON:006:1,2014-05-01T07:18:00Z,27.8217,-97.2040,0.0,5.8,35.0,8.9,'11111222,11111222,11111222' 
TCOON,ioos:station:TCOON:006:1,2014-05-01T07:24:00Z,27.8217,-97.2040,0.0,6.7,37.0,8.4,'11111222,11111222,11111222' 
TCOON,ioos:station:TCOON:006:1,2014-05-01T07:30:00Z,27.8217,-97.2040,0.0,6.4,37.0,8.3,'11111222,11111222,11111222' 
TCOON,ioos:station:TCOON:006:1,2014-05-01T07:36:00Z,27.8217,-97.2040,0.0,6.6,40.0,8.8,'11111222,11111222,11111222' 
TCOON,ioos:station:TCOON:006:1,2014-05-01T07:42:00Z,27.8217,-97.2040,0.0,5.5,38.0,7.7,'11111222,11111222,11111222' 
TCOON,ioos:station:TCOON:006:1,2014-05-01T07:48:00Z,27.8217,-97.2040,0.0,4.5,38.0,7.8,'11111222,11111222,11111222' 
TCOON,ioos:station:TCOON:006:1,2014-05-01T07:54:00Z,27.8217,-97.2040,0.0,5.1,36.0,7.1,'11111222,11111222,11111222' 
TCOON,ioos:station:TCOON:006:1,2014-05-01T08:00:00Z,27.8217,-97.2040,0.0,5.1,36.0,7.1,'1111122,1111122,1111122' 
TCOON,ioos:station:TCOON:006:1,2014-05-01T08:06:00Z,27.8217,-97.2040,0.0,5.0,32.0,7.3,'11111222,11111222,11111222' 
TCOON,ioos:station:TCOON:006:1,2014-05-01T08:12:00Z,27.8217,-97.2040,0.0,5.0,38.0,7.1,'11111222,11111222,11111222' 
TCOON,ioos:station:TCOON:006:1,2014-05-01T08:18:00Z,27.8217,-97.2040,0.0,4.7,42.0,7.6,'11111222,11111222,11111222' 
TCOON,ioos:station:TCOON:006:1,2014-05-01T08:24:00Z,27.8217,-97.2040,0.0,6.0,34.0,8.2,'11111222,11111222,11111222' 
TCOON,ioos:station:TCOON:006:1,2014-05-01T08:30:00Z,27.8217,-97.2040,0.0,5.3,32.0,7.5,'11111222,11111222,11111222' 
TCOON,ioos:station:TCOON:006:1,2014-05-01T08:36:00Z,27.8217,-97.2040,0.0,5.6,35.0,7.0,'11111222,11111222,11111222' 
TCOON,ioos:station:TCOON:006:1,2014-05-01T08:42:00Z,27.8217,-97.2040,0.0,5.8,35.0,8.4,'11111222,11111222,11111222' 
TCOON,ioos:station:TCOON:006:1,2014-05-01T08:48:00Z,27.8217,-97.2040,0.0,5.0,31.0,6.5,'11111222,11111222,11111222' 
TCOON,ioos:station:TCOON:006:1,2014-05-01T08:54:00Z,27.8217,-97.2040,0.0,3.8,31.0,7.0,'11111222,11111222,11111222' 
TCOON,ioos:station:TCOON:006:1,2014-05-01T09:00:00Z,27.8217,-97.2040,0.0,3.8,31.0,7.0,'1111122,1111122,1111122' 
TCOON,ioos:station:TCOON:006:1,2014-05-01T09:06:00Z,27.8217,-97.2040,0.0,4.1,35.0,5.2,'11111222,11111222,11111222' 
TCOON,ioos:station:TCOON:006:1,2014-05-01T09:12:00Z,27.8217,-97.2040,0.0,5.0,35.0,6.4,'11111222,11111222,11111222' 
TCOON,ioos:station:TCOON:006:1,2014-05-01T09:18:00Z,27.8217,-97.2040,0.0,5.8,36.0,7.9,'11111222,11111222,11111222' 
TCOON,ioos:station:TCOON:006:1,2014-05-01T09:24:00Z,27.8217,-97.2040,0.0,5.3,35.0,7.8,'11111222,11111222,11111222' 
TCOON,ioos:station:TCOON:006:1,2014-05-01T09:30:00Z,27.8217,-97.2040,0.0,5.0,34.0,8.0,'11111222,11111222,11111222' 
TCOON,ioos:station:TCOON:006:1,2014-05-01T09:36:00Z,27.8217,-97.2040,0.0,4.2,37.0,7.6,'11111222,11111222,11111222' 
TCOON,ioos:station:TCOON:006:1,2014-05-01T09:42:00Z,27.8217,-97.2040,0.0,2.8,10.0,6.2,'11111222,11111222,11111222' 
TCOON,ioos:station:TCOON:006:1,2014-05-01T09:48:00Z,27.8217,-97.2040,0.0,2.6,11.0,3.7,'11111222,11111222,11111222' 
TCOON,ioos:station:TCOON:006:1,2014-05-01T09:54:00Z,27.8217,-97.2040,0.0,2.4,8.0,3.5,'11111222,11111222,11111222' 
TCOON,ioos:station:TCOON:006:1,2014-05-01T10:00:00Z,27.8217,-97.2040,0.0,2.4,8.0,3.5,'1111122,1111122,1111122' 
TCOON,ioos:station:TCOON:006:1,2014-05-01T10:06:00Z,27.8217,-97.2040,0.0,2.8,14.0,3.8,'11111222,11111222,11111222' 
TCOON,ioos:station:TCOON:006:1,2014-05-01T10:12:00Z,27.8217,-97.2040,0.0,2.4,13.0,3.4,'11111222,11111222,11111222' 
TCOON,ioos:station:TCOON:006:1,2014-05-01T10:18:00Z,27.8217,-97.2040,0.0,2.1,8.0,2.9,'11111222,11111222,11111222' 
TCOON,ioos:station:TCOON:006:1,2014-05-01T10:24:00Z,27.8217,-97.2040,0.0,2.5,11.0,3.3,'11111222,11111222,11111222' 
TCOON,ioos:station:TCOON:006:1,2014-05-01T10:30:00Z,27.8217,-97.2040,0.0,2.6,14.0,3.6,'11111222,11111222,11111222' 
TCOON,ioos:station:TCOON:006:1,2014-05-01T10:36:00Z,27.8217,-97.2040,0.0,2.5,10.0,3.4,'11111222,11111222,11111222' 
TCOON,ioos:station:TCOON:006:1,2014-05-01T10:42:00Z,27.8217,-97.2040,0.0,2.4,7.0,3.1,'11111222,11111222,11111222' 
TCOON,ioos:station:TCOON:006:1,2014-05-01T10:48:00Z,27.8217,-97.2040,0.0,2.7,5.0,3.6,'11111222,11111222,11111222' 
TCOON,ioos:station:TCOON:006:1,2014-05-01T10:54:00Z,27.8217,-97.2040,0.0,2.4,8.0,3.3,'11111222,11111222,11111222' 
TCOON,ioos:station:TCOON:006:1,2014-05-01T11:00:00Z,27.8217,-97.2040,0.0,2.4,8.0,3.3,'1111122,1111122,1111122' 
TCOON,ioos:station:TCOON:006:1,2014-05-01T11:06:00Z,27.8217,-97.2040,0.0,2.5,11.0,3.9,'11111222,11111222,11111222' 
TCOON,ioos:station:TCOON:006:1,2014-05-01T11:12:00Z,27.8217,-97.2040,0.0,2.6,7.0,3.7,'11111222,11111222,11111222' 
TCOON,ioos:station:TCOON:006:1,2014-05-01T11:18:00Z,27.8217,-97.2040,0.0,3.0,11.0,4.0,'11111222,11111222,11111222' 
TCOON,ioos:station:TCOON:006:1,2014-05-01T11:24:00Z,27.8217,-97.2040,0.0,3.0,10.0,3.9,'11111222,11111222,11111222' 
TCOON,ioos:station:TCOON:006:1,2014-05-01T11:30:00Z,27.8217,-97.2040,0.0,3.5,16.0,4.5,'11111222,11111222,11111222' 
TCOON,ioos:station:TCOON:006:1,2014-05-01T11:36:00Z,27.8217,-97.2040,0.0,3.4,17.0,4.4,'11111222,11111222,11111222' 
TCOON,ioos:station:TCOON:006:1,2014-05-01T11:42:00Z,27.8217,-97.2040,0.0,3.5,16.0,4.6,'11111222,11111222,11111222' 
TCOON,ioos:station:TCOON:006:1,2014-05-01T11:48:00Z,27.8217,-97.2040,0.0,3.7,18.0,4.8,'11111222,11111222,11111222' 
TCOON,ioos:station:TCOON:006:1,2014-05-01T11:54:00Z,27.8217,-97.2040,0.0,4.1,19.0,5.1,'11111222,11111222,11111222' 
TCOON,ioos:station:TCOON:006:1,2014-05-01T12:00:00Z,27.8217,-97.2040,0.0,4.1,19.0,5.1,'1111122,1111122,1111122' 
TCOON,ioos:station:TCOON:006:1,2014-05-01T12:06:00Z,27.8217,-97.2040,0.0,4.3,18.0,5.8,'11111222,11111222,11111222' 
TCOON,ioos:station:TCOON:006:1,2014-05-01T12:12:00Z,27.8217,-97.2040,0.0,4.0,19.0,5.2,'11111222,11111222,11111222' 
TCOON,ioos:station:TCOON:006:1,2014-05-01T12:18:00Z,27.8217,-97.2040,0.0,3.5,19.0,5.0,'11111222,11111222,11111222' 
TCOON,ioos:station:TCOON:006:1,2014-05-01T12:24:00Z,27.8217,-97.2040,0.0,4.0,21.0,4.8,'11111222,11111222,11111222' 
TCOON,ioos:station:TCOON:006:1,2014-05-01T12:30:00Z,27.8217,-97.2040,0.0,3.6,17.0,4.7,'11111222,11111222,11111222' 
TCOON,ioos:station:TCOON:006:1,2014-05-01T12:36:00Z,27.8217,-97.2040,0.0,4.0,20.0,5.2,'11111222,11111222,11111222' 
TCOON,ioos:station:TCOON:006:1,2014-05-01T12:42:00Z,27.8217,-97.2040,0.0,3.9,18.0,4.8,'11111222,11111222,11111222' 
TCOON,ioos:station:TCOON:006:1,2014-05-01T12:48:00Z,27.8217,-97.2040,0.0,3.9,19.0,4.8,'11111222,11111222,11111222' 
TCOON,ioos:station:TCOON:006:1,2014-05-01T12:54:00Z,27.8217,-97.2040,0.0,4.4,19.0,5.7,'11111222,11111222,11111222' 
TCOON,ioos:station:TCOON:006:1,2014-05-01T13:00:00Z,27.8217,-97.2040,0.0,4.4,19.0,5.7,'1111122,1111122,1111122' 
TCOON,ioos:station:TCOON:006:1,2014-05-01T13:06:00Z,27.8217,-97.2040,0.0,4.4,22.0,5.2,'11111222,11111222,11111222' 
TCOON,ioos:station:TCOON:006:1,2014-05-01T13:12:00Z,27.8217,-97.2040,0.0,3.4,26.0,4.9,'11111222,11111222,11111222' 
TCOON,ioos:station:TCOON:006:1,2014-05-01T13:18:00Z,27.8217,-97.2040,0.0,3.9,28.0,5.9,'11111222,11111222,11111222' 
TCOON,ioos:station:TCOON:006:1,2014-05-01T13:24:00Z,27.8217,-97.2040,0.0,5.6,43.0,8.6,'11111222,11111222,11111222' 
TCOON,ioos:station:TCOON:006:1,2014-05-01T13:30:00Z,27.8217,-97.2040,0.0,6.5,38.0,8.4,'11111222,11111222,11111222' 
TCOON,ioos:station:TCOON:006:1,2014-05-01T13:36:00Z,27.8217,-97.2040,0.0,6.3,37.0,8.5,'11111222,11111222,11111222' 
TCOON,ioos:station:TCOON:006:1,2014-05-01T13:42:00Z,27.8217,-97.2040,0.0,7.4,38.0,9.3,'11111222,11111222,11111222' 
TCOON,ioos:station:TCOON:006:1,2014-05-01T13:48:00Z,27.8217,-97.2040,0.0,5.3,29.0,8.7,'11111222,11111222,11111222' 
TCOON,ioos:station:TCOON:006:1,2014-05-01T13:54:00Z,27.8217,-97.2040,0.0,5.0,36.0,9.0,'11111222,11111222,11111222' 
TCOON,ioos:station:TCOON:006:1,2014-05-01T14:00:00Z,27.8217,-97.2040,0.0,5.0,36.0,9.0,'1111122,1111122,1111122' 
TCOON,ioos:station:TCOON:006:1,2014-05-01T14:06:00Z,27.8217,-97.2040,0.0,5.3,32.0,8.2,'11111222,11111222,11111222' 
TCOON,ioos:station:TCOON:006:1,2014-05-01T14:12:00Z,27.8217,-97.2040,0.0,4.7,33.0,7.6,'11111222,11111222,11111222' 
TCOON,ioos:station:TCOON:006:1,2014-05-01T14:18:00Z,27.8217,-97.2040,0.0,5.5,36.0,8.0,'11111222,11111222,11111222' 
TCOON,ioos:station:TCOON:006:1,2014-05-01T14:24:00Z,27.8217,-97.2040,0.0,5.8,34.0,8.2,'11111222,11111222,11111222' 
TCOON,ioos:station:TCOON:006:1,2014-05-01T14:30:00Z,27.8217,-97.2040,0.0,4.1,30.0,7.4,'11111222,11111222,11111222' 
TCOON,ioos:station:TCOON:006:1,2014-05-01T14:36:00Z,27.8217,-97.2040,0.0,5.3,38.0,7.5,'11111222,11111222,11111222' 
TCOON,ioos:station:TCOON:006:1,2014-05-01T14:42:00Z,27.8217,-97.2040,0.0,5.1,35.0,7.6,'11111222,11111222,11111222' 
TCOON,ioos:station:TCOON:006:1,2014-05-01T14:48:00Z,27.8217,-97.2040,0.0,5.1,30.0,7.7,'11111222,11111222,11111222' 
TCOON,ioos:station:TCOON:006:1,2014-05-01T14:54:00Z,27.8217,-97.2040,0.0,3.4,34.0,7.1,'11111222,11111222,11111222' 
TCOON,ioos:station:TCOON:006:1,2014-05-01T15:00:00Z,27.8217,-97.2040,0.0,3.4,34.0,7.1,'1111122,1111122,1111122' 
TCOON,ioos:station:TCOON:006:1,2014-05-01T15:06:00Z,27.8217,-97.2040,0.0,4.7,23.0,6.8,'11111222,11111222,11111222' 
TCOON,ioos:station:TCOON:006:1,2014-05-01T15:12:00Z,27.8217,-97.2040,0.0,5.1,33.0,8.0,'11111222,11111222,11111222' 
TCOON,ioos:station:TCOON:006:1,2014-05-01T15:18:00Z,27.8217,-97.2040,0.0,4.7,37.0,8.0,'11111222,11111222,11111222' 
TCOON,ioos:station:TCOON:006:1,2014-05-01T15:24:00Z,27.8217,-97.2040,0.0,5.1,39.0,7.6,'11111222,11111222,11111222' 
TCOON,ioos:station:TCOON:006:1,2014-05-01T15:30:00Z,27.8217,-97.2040,0.0,4.7,34.0,7.0,'11111222,11111222,11111222' 
TCOON,ioos:station:TCOON:006:1,2014-05-01T15:36:00Z,27.8217,-97.2040,0.0,3.9,34.0,7.4,'11111222,11111222,11111222' 
TCOON,ioos:station:TCOON:006:1,2014-05-01T15:42:00Z,27.8217,-97.2040,0.0,3.0,38.0,6.8,'11111222,11111222,11111222' 
TCOON,ioos:station:TCOON:006:1,2014-05-01T15:48:00Z,27.8217,-97.2040,0.0,4.1,41.0,6.4,'11111222,11111222,11111222' 
TCOON,ioos:station:TCOON:006:1,2014-05-01T15:54:00Z,27.8217,-97.2040,0.0,4.0,36.0,6.0,'11111222,11111222,11111222' 
TCOON,ioos:station:TCOON:006:1,2014-05-01T16:00:00Z,27.8217,-97.2040,0.0,4.0,36.0,6.0,'1111122,1111122,1111122' 
TCOON,ioos:station:TCOON:006:1,2014-05-01T16:06:00Z,27.8217,-97.2040,0.0,4.1,28.0,6.7,'11111222,11111222,11111222' 
TCOON,ioos:station:TCOON:006:1,2014-05-01T16:12:00Z,27.8217,-97.2040,0.0,5.4,25.0,9.1,'11111222,11111222,11111222' 
TCOON,ioos:station:TCOON:006:1,2014-05-01T16:18:00Z,27.8217,-97.2040,0.0,4.9,33.0,8.2,'11111222,11111222,11111222' 
TCOON,ioos:station:TCOON:006:1,2014-05-01T16:24:00Z,27.8217,-97.2040,0.0,5.1,27.0,6.8,'11111222,11111222,11111222' 
TCOON,ioos:station:TCOON:006:1,2014-05-01T16:30:00Z,27.8217,-97.2040,0.0,4.4,24.0,6.9,'11111222,11111222,11111222' 
TCOON,ioos:station:TCOON:006:1,2014-05-01T16:36:00Z,27.8217,-97.2040,0.0,5.1,29.0,7.9,'11111222,11111222,11111222' 
TCOON,ioos:station:TCOON:006:1,2014-05-01T16:42:00Z,27.8217,-97.2040,0.0,4.3,53.0,7.1,'11111222,11111222,11111222' 
TCOON,ioos:station:TCOON:006:1,2014-05-01T16:48:00Z,27.8217,-97.2040,0.0,5.3,33.0,7.2,'11111222,11111222,11111222' 
TCOON,ioos:station:TCOON:006:1,2014-05-01T16:54:00Z,27.8217,-97.2040,0.0,4.9,45.0,8.1,'11111222,11111222,11111222' 
TCOON,ioos:station:TCOON:006:1,2014-05-01T17:00:00Z,27.8217,-97.2040,0.0,4.9,45.0,8.1,'1111122,1111122,1111122' 
TCOON,ioos:station:TCOON:006:1,2014-05-01T17:06:00Z,27.8217,-97.2040,0.0,3.8,31.0,6.7,'11111222,11111222,11111222' 
TCOON,ioos:station:TCOON:006:1,2014-05-01T17:12:00Z,27.8217,-97.2040,0.0,5.3,31.0,7.2,'11111222,11111222,11111222' 
TCOON,ioos:station:TCOON:006:1,2014-05-01T17:18:00Z,27.8217,-97.2040,0.0,5.6,32.0,7.9,'11111222,11111222,11111222' 
TCOON,ioos:station:TCOON:006:1,2014-05-01T17:24:00Z,27.8217,-97.2040,0.0,2.5,45.0,6.6,'11111222,11111222,11111222' 
TCOON,ioos:station:TCOON:006:1,2014-05-01T17:30:00Z,27.8217,-97.2040,0.0,3.9,40.0,6.2,'11111222,11111222,11111222' 
TCOON,ioos:station:TCOON:006:1,2014-05-01T17:36:00Z,27.8217,-97.2040,0.0,5.1,26.0,7.3,'11111222,11111222,11111222' 
TCOON,ioos:station:TCOON:006:1,2014-05-01T17:42:00Z,27.8217,-97.2040,0.0,4.2,22.0,6.6,'11111222,11111222,11111222' 
TCOON,ioos:station:TCOON:006:1,2014-05-01T17:48:00Z,27.8217,-97.2040,0.0,4.2,21.0,7.4,'11111222,11111222,11111222' 
TCOON,ioos:station:TCOON:006:1,2014-05-01T17:54:00Z,27.8217,-97.2040,0.0,4.0,21.0,6.1,'11111222,11111222,11111222' 
TCOON,ioos:station:TCOON:006:1,2014-05-01T18:00:00Z,27.8217,-97.2040,0.0,4.0,21.0,6.1,'1111122,1111122,1111122' 
TCOON,ioos:station:TCOON:006:1,2014-05-01T18:06:00Z,27.8217,-97.2040,0.0,4.4,20.0,5.9,'11111222,11111222,11111222' 
TCOON,ioos:station:TCOON:006:1,2014-05-01T18:12:00Z,27.8217,-97.2040,0.0,4.3,30.0,6.3,'11111222,11111222,11111222' 
TCOON,ioos:station:TCOON:006:1,2014-05-01T18:18:00Z,27.8217,-97.2040,0.0,3.2,11.0,6.7,'11111222,11111222,11111222' 
TCOON,ioos:station:TCOON:006:1,2014-05-01T18:24:00Z,27.8217,-97.2040,0.0,3.5,360.0,5.8,'11111222,11144222,11111222' 
TCOON,ioos:station:TCOON:006:1,2014-05-01T18:30:00Z,27.8217,-97.2040,0.0,5.9,14.0,7.3,'11111222,11111222,11111222' 
TCOON,ioos:station:TCOON:006:1,2014-05-01T18:36:00Z,27.8217,-97.2040,0.0,4.6,19.0,7.4,'11111222,11111222,11111222' 
TCOON,ioos:station:TCOON:006:1,2014-05-01T18:42:00Z,27.8217,-97.2040,0.0,3.3,22.0,7.6,'11111222,11111222,11111222' 
TCOON,ioos:station:TCOON:006:1,2014-05-01T18:48:00Z,27.8217,-97.2040,0.0,4.9,32.0,7.1,'11111222,11111222,11111222' 
TCOON,ioos:station:TCOON:006:1,2014-05-01T18:54:00Z,27.8217,-97.2040,0.0,5.0,35.0,7.0,'11111222,11111222,11111222' 
TCOON,ioos:station:TCOON:006:1,2014-05-01T19:00:00Z,27.8217,-97.2040,0.0,5.0,35.0,7.0,'1111122,1111122,1111122' 
TCOON,ioos:station:TCOON:006:1,2014-05-01T19:06:00Z,27.8217,-97.2040,0.0,5.1,36.0,6.8,'11111222,11111222,11111222' 
TCOON,ioos:station:TCOON:006:1,2014-05-01T19:12:00Z,27.8217,-97.2040,0.0,4.3,35.0,6.2,'11111222,11111222,11111222' 
TCOON,ioos:station:TCOON:006:1,2014-05-01T19:18:00Z,27.8217,-97.2040,0.0,5.3,29.0,8.0,'11111222,11111222,11111222' 
TCOON,ioos:station:TCOON:006:1,2014-05-01T19:24:00Z,27.8217,-97.2040,0.0,4.8,41.0,7.4,'11111222,11111222,11111222' 
TCOON,ioos:station:TCOON:006:1,2014-05-01T19:30:00Z,27.8217,-97.2040,0.0,6.2,12.0,8.9,'11111222,11111222,11111222' 
TCOON,ioos:station:TCOON:006:1,2014-05-01T19:36:00Z,27.8217,-97.2040,0.0,5.0,27.0,7.4,'11111222,11111222,11111222' 
TCOON,ioos:station:TCOON:006:1,2014-05-01T19:42:00Z,27.8217,-97.2040,0.0,4.5,41.0,6.9,'11111222,11111222,11111222' 
TCOON,ioos:station:TCOON:006:1,2014-05-01T19:48:00Z,27.8217,-97.2040,0.0,4.6,51.0,6.4,'11111222,11111222,11111222' 
TCOON,ioos:station:TCOON:006:1,2014-05-01T19:54:00Z,27.8217,-97.2040,0.0,2.2,54.0,5.3,'11111222,11111222,11111222' 
TCOON,ioos:station:TCOON:006:1,2014-05-01T20:00:00Z,27.8217,-97.2040,0.0,2.2,54.0,5.3,'1111122,1111122,1111122' 
TCOON,ioos:station:TCOON:006:1,2014-05-01T20:06:00Z,27.8217,-97.2040,0.0,3.3,75.0,6.2,'11111222,11111222,11111222' 
TCOON,ioos:station:TCOON:006:1,2014-05-01T20:12:00Z,27.8217,-97.2040,0.0,2.7,70.0,5.5,'11111222,11111222,11111222' 
TCOON,ioos:station:TCOON:006:1,2014-05-01T20:18:00Z,27.8217,-97.2040,0.0,3.5,46.0,6.0,'11111222,11111222,11111222' 
TCOON,ioos:station:TCOON:006:1,2014-05-01T20:24:00Z,27.8217,-97.2040,0.0,4.1,42.0,5.6,'11111222,11111222,11111222' 
TCOON,ioos:station:TCOON:006:1,2014-05-01T20:30:00Z,27.8217,-97.2040,0.0,3.8,47.0,5.6,'11111222,11111222,11111222' 